STARLINK-11210, 60116

Orbit data source: Space-Track

STARLINK-11210, 60116 is a payload satellite owned by SpaceX/Seattle (US) in LEO that was launched on Mon, 24 Jun 2024 UTC via an FALCON 9 launch vehicle from the Air Force Western Test Range (AFWTR). Payload-class satellites include a variety of spacecraft equipped with specific instruments for various scientific and technological missions. These include communications satellites like Starlink; space stations such as the ISS; scientific satellites like the Hubble; Earth observation satellites from companies like Planet Labs, Umbra, and HawkEye 360; GPS; miniature CubeSats for education and research; and military/defense satellites.

Loading next visibility...
Identifier
60116, 2024-118D
Orbit
LEO
Last TLE update
8 hours ago
Origin
Manufacturer
SpaceX/Seattle
Mission
Operational Commercial Communications
Bus & Motor
STARLINK V2M, Unknown motor
Mass
730 kg wet, ~700 kg dry
Launch date (UTC)
2024-06-24 (1 year ago)
Launch vehicle
FALCON 9
Launch site
Air Force Western Test Range (AFWTR)
Object type
Payload
Rocket body
Debris
Shape & HBR
Box + 2 Pan, 29 m
Radar Cross Section
36.964 m², Large (>1 m²)

Expand to show TLE details & history

TLE from 8 hours ago
0 STARLINK-11210
1 60116U 24118D   25183.92954155  .00000689  00000-0  10536-4 0  9991
2 60116  53.1585  12.6357 0000373 124.3076 235.7977 15.69715518 58767
Epoch: 2025-07-02T22:18Z
TLE epoch observation values (Epoch: 2025-07-02T22:18:32.389Z)
Latitude
-0.00006°
Longitude
116.79711°
Altitude
360.767 km
Speed
7.694 km/s
True Right ascension
00h 50m 32s
True Declination
0° 00' 00"
Sunlit
Object was in daylight at epoch
Visualization orbit readout
Latitude
-16.93631°
Longitude
-51.83507°
Altitude
364.255 km
Speed
7.691 km/s
Apparent Right ascension
10h 45m 46s
Apparent Declination
-40° 47' 53"
Sunlit
Object is in daylight
Visualization observer readout
Local Sidereal Time
18:33:53
Azimuth
247.421° WSW
Elevation
-43.087°
Doppler factor
1
Orbital elements
Apogee altitude
360.223 km
Perigee altitude
359.721 km
Semi-major axis
6,738.109 km
Eccentricity
0.00004
Inclination
53.1585°
RAAN
12.6357°
Arg. of periapsis
124.3076°
True anomaly
Unknown
Mean anomaly
235.7977°
Eccentric anomaly
Unknown
Mean motion
3.92406 °/min
Orbital period
91.74 mins
BSTAR
0.000010536
Loading maneuver chart data...
Loading SW <> Apogee altitude chart data...
Loading historical data...
Loading historical data...
Loading historical data...
Loading historical data...
Loading historical data...
Loading historical data...
Loading historical data...

STARLINK-11210 Visibility forecast

Observer location: undefined°, undefined°

Span
Click to sort rows by Start time (UTC) header in descending order
Start Az.
Max El. time (UTC)
Max El. Az.
Max El.
End time (UTC)
End Az.
5 mins2025-07-03 15:18:08.985Z225.562° WSW2025-07-03 15:20:08.985Z206.886° SW42.877°2025-07-03 15:23:08.985Z51.871° ENE
4 mins2025-07-03 21:43:08.985Z325.369° NNW2025-07-03 21:45:08.985Z35.6° NE36.789°2025-07-03 21:47:08.985Z107.494° ESE
|